CZ-6A DEB, 61102

Orbit data source: Space-Track

CZ-6A DEB, 61102 is space debris in LEO originally from a launch on Tue, 06 Aug 2024 UTC launched from the Taiyaun Space Center, China (TSC). Debris objects in space refer to the collection of defunct objects orbiting the Earth. Examples of debris include non-operational satellites, rocket bodies, and fragments generated from explosions, collisions, or faulty payload assembly.

Loading next visibility...
Identifier
61102, 2024-140NU
Orbit
LEO
Country
Flag of CNCN / PRC
Related business
Manufacturer
SAST
Mission
Spacecraft
Bus & Motor
Unknown
Mass
Unknown
Launch date (UTC)
2024-08-06 (2 years ago)
Launch vehicle
Unknown
Launch site
Taiyaun Space Center, China (TSC)
Object type
Payload
Rocket body
Debris
Shape & HBR
Unknown shape, 0.1 m
Radar Cross Section
Medium (>0.1 m² and <1 m²)

Expand to show TLE details & history
Last TLE update: 16 hours ago

TLE from 16 hours ago
0 CZ-6A DEB
1 61102U 24140NU  26171.16695957  .00010933  00000-0  99255-3 0  9995
2 61102  88.7295 243.0023 0128913 113.9179 247.5616 14.88965301 97697
Epoch: 2026-06-20T04:00Z
TLE epoch observation values (Epoch: 2026-06-20T04:00:25.306Z)
Latitude
-0.00001°
Longitude
-85.48862°
Altitude
639.652 km
Speed
7.519 km/s
True Right ascension
16h 12m 00s
True Declination
0° 00' 00"
Sunlit
Object was in full shadow at epoch
Visualization orbit readout
Latitude
Unknown
Longitude
Unknown
Altitude
Unknown
Speed
Unknown
Apparent Right ascension
Unknown
Apparent Declination
Unknown
Sunlit
N/A
Visualization observer readout
Local Sidereal Time
07:22:56
Azimuth
Unknown
Elevation
Unknown
Doppler factor
Unknown
Orbital elements
Apogee altitude
687.953 km
Perigee altitude
508.089 km
Semi-major axis
6,976.158 km
Eccentricity
0.01289
Inclination
88.7295°
RAAN
243.0023°
Arg. of periapsis
113.9179°
True anomaly
246.20468°
Mean anomaly
247.5616°
Eccentric anomaly
246.88229°
Mean motion
3.72493 °/min
Orbital period
96.65 mins
BSTAR
0.00099255
Loading maneuver chart data...
Computing Atmospheric mass density...
Loading historical data...
Loading historical data...
Loading historical data...
Loading historical data...
Loading historical data...
Loading historical data...
Loading historical data...

Documentation

Showing up to 5 results
|